Regional Weather Roundup
Issued by NWS

Home | Current Version | Previous Version | Graphics & Text | Print | Product List | Glossary On
Versions: 1 2 3 4 5 6 7 8 9 10 11 12 13 14 15 16 17 18 19 20 21 22 23 24 25 26 27 28 29 30 31 32 33 34 35 36 37 38 39 40 41 42 43 44 45 46 47 48 49 50
000
ASUS45 KABQ 290610
RWRNM
WEATHER ROUNDUP FOR NEW MEXICO
NATIONAL WEATHER SERVICE ALBUQUERQUE NM
1200 AM MDT SUN MAR 29 2015

NOTE: "FAIR" MEANS FEW OR NO CLOUDS BELOW 12,000 FEET AGL WITH NO
       SIGNIFICANT WEATHER OR OBSTRUCTIONS TO VISION.

      THIS PRODUCT IS RELEASED AS TWO VERSIONS.  ONE VERSION NEAR
      THE TOP OF THE HOUR CONTAINING PRELIMINARY DATA FROM ALBUQUERQUE
      AND OTHER STATIONS.  A FINAL VERSION WITH ADDITIONAL DATA IS
      ISSUED ABOUT 10 MINUTES AFTER THE HOUR.

NMZ501-503-504-510>518-290700-
NORTHWEST PLATEAU/NORTHCENTRAL MOUNTAINS

CITY           SKY/WX    TMP DP  RH WIND       PRES   REMARKS
FARMINGTON     CLEAR     44  16  32 N7        30.15R
6HR MIN TEMP:  44; 6HR MAX TEMP:  75;

LOS ALAMOS     CLEAR     57  13  18 SW3       30.24S
SANTA FE       CLEAR     50  14  23 S5        30.18R
6HR MIN TEMP:  48; 6HR MAX TEMP:  75;

TAOS           CLEAR     45  12  26 NW5       30.21F
ANGEL FIRE     FAIR      47  17  30 W9        30.26S

$$
NMZ402-403-502-505>509-290700-
WESTCENTRAL MOUNTAINS/SOUTHWEST MOUNTAINS

CITY           SKY/WX    TMP DP  RH WIND       PRES   REMARKS
GALLUP         CLEAR     39   7  26 E6        30.26R WCI  35
6HR MIN TEMP:  39; 6HR MAX TEMP:  74;

GRANTS         CLEAR     36   9  32 NW6       30.26S WCI  32
SILVER CITY    CLEAR     55   9  15 N14       30.24S

$$
NMZ407-409-411-412-290700-
SOUTHERN DESERTS

CITY           SKY/WX    TMP DP  RH WIND       PRES   REMARKS
LORDSBURG      FAIR      54  14  20 W8        30.17R
DEMING         CLEAR     61   7  11 NW14      30.14S
6HR MIN TEMP:  59; 6HR MAX TEMP:  83;

LAS CRUCES     CLEAR     59   6  12 W12       30.13S
HOLLOMAN AFB   CLEAR     60  15  17 S12       30.07R
ALAMOGORDO     CLEAR     59  16  18 S10       30.09R
T OR C         CLEAR     67   3   8 NW10      30.13R
6HR MIN TEMP:  65; 6HR MAX TEMP:  84;


$$
NMZ519>523-290700-
CENTRAL VALLEYS/CENTRAL HIGHLANDS

CITY           SKY/WX    TMP DP  RH WIND       PRES   REMARKS
ALBUQUERQUE    CLEAR     64  13  13 N7        30.15R
6HR MIN TEMP:  59; 6HR MAX TEMP:  80;

DOUBLE EAGLE   CLEAR     49  14  24 NW8       30.18S
MORIARTY ARPT  FAIR      44  11  26 NE3       30.20R
6HR MIN TEMP:  42; 6HR MAX TEMP:  74;

CLINES CORNERS CLEAR     47  15  27 W13       30.20S
6HR MIN TEMP:  46; 6HR MAX TEMP:  71;

BELEN          FAIR      50   7  17 SW7       30.16R
6HR MIN TEMP:  50; 6HR MAX TEMP:  81;

SOCORRO        FAIR      70   9   9 W17       30.13R
6HR MIN TEMP:  69; 6HR MAX TEMP:  83;


$$
NMZ524>526-539-540-290700-
SOUTHCENTRAL MOUNTAINS

CITY           SKY/WX    TMP DP  RH WIND       PRES   REMARKS
RUIDOSO        CLEAR     54  12  19 W8        30.26S

$$
NMZ527>531-290700-
NORTHEAST HIGHLANDS/NORTHEAST PLAINS

CITY           SKY/WX    TMP DP  RH WIND       PRES   REMARKS
LAS VEGAS      CLEAR     56  11  16 W8        30.17S
6HR MIN TEMP:  51; 6HR MAX TEMP:  71;

RATON          CLEAR     63  16  16 NW16      30.08R
6HR MIN TEMP:  59; 6HR MAX TEMP:  75;

CLAYTON        CLEAR     57  22  25 W10       30.02R
6HR MIN TEMP:  56; 6HR MAX TEMP:  78;


$$
NMZ532>537-290700-
EASTCENTRAL PLAINS

CITY           SKY/WX    TMP DP  RH WIND       PRES   REMARKS
TUCUMCARI      CLEAR     59  24  26 S6        29.98S
6HR MIN TEMP:  55; 6HR MAX TEMP:  82;

CANNON AFB     CLEAR     58  27  30 S10       30.04S
6HR MIN TEMP:  54; 6HR MAX TEMP:  80; 6HR PCP: TRACE;

CLOVIS AIRPORT CLEAR     54  27  35 S7        30.04S

$$
NMZ028-029-538-290700-
SOUTHEAST PLAINS

CITY           SKY/WX    TMP DP  RH WIND       PRES   REMARKS
ROSWELL        CLEAR     60  25  26 W9        30.03S
6HR MIN TEMP:  54; 6HR MAX TEMP:  87;

ARTESIA        CLEAR     54  25  32 W6G12     30.04S
CARLSBAD       CLEAR     64  28  25 SW13      30.01S
6HR MIN TEMP:  59; 6HR MAX TEMP:  87;

HOBBS          CLEAR     57  23  26 SW9       30.05S


$$


USA.gov is the U.S. government's official web portal to all federal, state and local government web resources and services.